Regional Weather Roundup
Issued by NWS

Home | Current Version | Previous Version | Text Only | Print | Product List | Glossary On
Versions: 1 2 3 4 5 6 7 8 9 10 11 12 13 14 15 16 17 18 19 20 21 22 23 24 25 26 27 28 29 30 31 32 33 34 35 36 37 38 39 40 41 42 43 44 45 46 47 48 49 50
000
ASUS46 KSEW 170310
RWRWA

WASHINGTON REGIONAL WEATHER ROUNDUP
NATIONAL WEATHER SERVICE SEATTLE WA
700 PM PST MON JAN 16 2017

NOTE:"FAIR" INDICATES FEW OR NO CLOUDS BELOW 12,000 FEET WITH NO
SIGNIFICANT WEATHER AND/OR OBSTRUCTIONS TO VISIBILITY.

WAZ507-509-555>559-170400-
SEATTLE, TACOMA, EVERETT, AND VICINITY

CITY           SKY/WX    TMP DP  RH WIND       PRES   REMARKS
EVERETT        CLOUDY    47  28  47 SE18      29.97R
BOEING FIELD   CLOUDY    46  31  55 SE9       30.00R
RENTON         CLOUDY    44  33  65 E3        30.01R HAZE
SEATAC AIRPORT CLOUDY    44  33  65 S7        30.00R
JBLM-MCCHORD   CLOUDY    42  33  71 S3        30.00S
PUYALLUP         N/A     41  36  81 CALM      30.00S
BREMERTON      CLOUDY    41  30  65 S9        30.01S
JBLM-FT LEWIS  CLOUDY    41  33  75 S6        30.00S
TACOMA NARROWS CLOUDY    44  30  57 MISG      30.00S
$$

WAZ001-503-506-510-514-515-170400-
NORTH INTERIOR

CITY           SKY/WX    TMP DP  RH WIND       PRES   REMARKS
BELLINGHAM     LGT RAIN  38  34  85 NE6       29.99R
FRIDAY HARBOR  LGT RAIN  43  36  76 N8        29.97
EASTSOUND      LGT RAIN  41  37  87 CALM      29.97S
PORT ANGELES   CLOUDY    38  35  89 SE5       29.94F
EDIZ HOOK      CLOUDY    43  37  78 CALM      29.95F
PORT TOWNSEND    N/A     43  37  81 W7        29.98R
NAS WHIDBEY    LGT RAIN  47  33  58 E6        30.01R
ARLINGTON      NOT AVBL
BURLINGTON     CLOUDY    43  34  70 NW5       29.99R
$$

WAZ020-022-039-040-504-511-512-170400-
SOUTHWEST INTERIOR

CITY           SKY/WX    TMP DP  RH WIND       PRES   REMARKS
SHELTON        CLOUDY    42  32  67 SW7       29.99S
OLYMPIA        CLOUDY    38  29  70 SW6       30.02S
CHEHALIS       CLOUDY    37  28  70 VRB7      30.04R
KELSO          CLOUDY    30  22  72 S14G21    30.09F WCI  19
VANCOUVER      CLOUDY    26  16  65 SE8       30.12
SCAPPOOSE, OR  CLOUDY    29  19  66 S6        30.12F
PORTLAND, OR   CLOUDY    25  16  68 SE14      30.12F WCI  13
$$

WAZ021-516-517-170400-
WASHINGTON COAST

CITY           SKY/WX    TMP DP  RH WIND       PRES   REMARKS
FORKS          CLOUDY    43  38  82 E5        29.92F
HOQUIAM        CLOUDY    43  33  68 E10       29.97
ASTORIA, OR    CLOUDY    43  28  55 E8        30.00F
$$

WAZ019-023-024-040-567>569-170400-
CASCADE MOUNTAINS AND COLUMBIA GORGE

CITY           SKY/WX    TMP DP  RH WIND       PRES   REMARKS
STAMPEDE PASS  NOT AVBL
TROUTDALE, OR  MOCLDY    24  15  68 E31G43    30.11S WCI   7
THE DALLES, OR MOCLDY    14   8  77 SE7       30.44F
$$

WAZ026-027-041>044-520-521-170400-
EAST SLOPES

CITY           SKY/WX    TMP DP  RH WIND       PRES   REMARKS
OMAK           CLOUDY    19  11  70 S6        30.31F
WENATCHEE      CLOUDY    13   9  84 E7        30.31F
ELLENSBURG     PTCLDY    12   6  77 E6        30.26
YAKIMA         CLOUDY    11   6  81 S3        30.35F HAZE
$$

WAZ028-034-035-170400-
COLUMBIA BASIN

CITY           SKY/WX    TMP DP  RH WIND       PRES   REMARKS
EPHRATA        CLOUDY     8   1  73 CALM      30.33F
MOSES LAKE     CLOUDY     6   1  80 N3        30.36S
PASCO          CLOUDY     7   5  91 N3        30.46S
HERMISTON, OR  CLEAR      6   3  87 S6        30.41F
$$

WAZ036>038-170400-
NORTHEAST WASHINGTON

CITY           SKY/WX    TMP DP  RH WIND       PRES   REMARKS
SPOKANE GEIGER FOG       11   8  88 W5        30.22  VSB 3/4
SPOKANE FELTS  PTCLDY    15  13  91 CALM      30.25F FOG
FAIRCHILD AFB  NOT AVBL
COEURDALENE,ID CLEAR     13  10  88 NE9       30.22F
DEER PARK      MOCLDY     8   5  87 CALM      30.24F FOG
$$

WAZ029>033-170400-
SOUTHEAST WASHINGTON

CITY           SKY/WX    TMP DP  RH WIND       PRES   REMARKS
PULLMAN        PTCLDY    23  14  68 E14       30.20F WCI  11
LEWISTON, ID   PTCLDY    10   6  84 N3        30.28F
WALLA WALLA    LGT SNOW   7   3  84 SE7       30.36S FOG
PENDLETON, OR  PTCLDY     7   4  87 CALM      30.32S
$$



USA.gov is the U.S. government's official web portal to all federal, state and local government web resources and services.